Location: Bocianicha
(51.5066°N, 19.2563°E)
Time: 14:06:56
(UTC+00:00)

H-2A R/B - Pass Details

Date: 15 June 2025
Orbit: 729 x 831 km, 98.3° (Epoch: 17 July)

Event Time Altitude Azimuth Distance (km) Brightness Sun altitude
Rises 01:23:16 0° 22° (NNE) 3,356 7.2 -7.4°
Reaches altitude 10° 01:26:01 10° 34° (NE) 2,405 6.4 -7.1°
Maximum altitude 01:30:29 27° 92° (E) 1,500 4.0 -6.7°
Drops below altitude 10° 01:34:50 10° 149° (SSE) 2,336 4.3 -6.3°
Sets 01:37:27 0° 162° (SSE) 3,241 4.9 -6.0°
